Location: Tucson
(32.2217°N, 110.9265°W)
Time: 07:34:19
(UTC-07:00)

Tiros 1 - Pass Details

Date: 27 October 2021
Orbit: 629 x 664 km, 48.4° (Epoch: 26 November)

Event Time Altitude Azimuth Distance (km) Brightness Sun altitude
Rises 16:35:04 0° 299° (WNW) 2,945 11.1 11.7°
Reaches altitude 10° 16:37:37 10° 288° (WNW) 2,026 10.6 11.2°
Maximum altitude 16:41:40 30° 228° (SW) 1,146 9.8 10.4°
Drops below altitude 10° 16:45:40 10° 168° (SSE) 2,001 9.9 9.6°
Sets 16:48:11 0° 157° (SSE) 2,901 10.5 9.1°
